Belleville, IL

11:03 PM CST on November 14, 2019 (GMT -0600)
Scott Air Force Base-Midamerica

Weather History for KBLV - October, 2019

Change the Weather History Date:

Sunday, October 20, 2019

  Actual Average Record
Temperature  
Mean Temperature 59 °F -  
Max Temperature 67 °F 67 °F 86 °F (1953)
Min Temperature 51 °F 40 °F 24 °F (1972)
Degree Days  
Heating Degree Days 6    
Growing Degree Days 9 (Base 50)    
Moisture  
Dew Point 53 °F    
Average Humidity 82    
Maximum Humidity 95    
Minimum Humidity 63    
Precipitation  
Precipitation 0.00 in - - ()
Sea Level Pressure  
Sea Level Pressure 29.87 in    
Wind  
Wind Speed 1 mph ()    
Max Wind Speed 9 mph    
Max Gust Speed -    
Visibility 10.0 miles    
Events      
Averages and records for this station are not official NWS values.
T = Trace of Precipitation, MM = Missing Value Source: Averaged Metar Reports

Daily Weather History Graph

Daily Weather History Graph

Search for Another Location

Airport or City:

Astronomy

Oct. 20, 2019 Rise Set
Actual Time 7:13 AM CDT 6:14 PM CDT
Civil Twilight 6:46 AM CDT 6:41 PM CDT
Nautical Twilight 6:15 AM CDT 7:12 PM CDT
Astronomical Twilight 5:44 AM CDT 7:42 PM CDT
Moon 11:26 PM CDT (10/20) 1:38 PM CDT (10/20)
Length of Visible Light 11h 55m
Length of Day
11h 01m
Waning Gibbous, 59% of the Moon is Illuminated
Oct 20
Waning Gibbous
Oct 21
Last Quarter
Oct 27
New
Nov 4
First Quarter
Nov 12
Full

Hourly Weather History & Observations

Time (CDT) Temp. Dew Point Humidity Pressure Visibility Wind Dir Wind Speed Gust Speed Precip Events Conditions
12:56 AM 51.6 °F 50.0 °F 94% 29.82 in 10.0 mi Calm Calm - N/A   Partly Cloudy
1:56 AM 51.1 °F 49.6 °F 95% 29.82 in 10.0 mi Calm Calm - N/A   Mostly Cloudy
2:56 AM 56.3 °F 53.1 °F 89% 29.83 in 10.0 mi NNW 6.9 mph - N/A   Overcast
3:56 AM 55.9 °F 52.3 °F 88% 29.83 in 10.0 mi Calm Calm - N/A   Overcast
4:56 AM 55.9 °F 52.3 °F 88% 29.84 in 10.0 mi Calm Calm - N/A   Overcast
5:56 AM 55.9 °F 53.1 °F 90% 29.87 in 10.0 mi Calm Calm - N/A   Overcast
6:31 AM 55.4 °F 53.6 °F 94% 29.88 in 10.0 mi Calm Calm - N/A   Overcast
6:56 AM 56.3 °F 52.7 °F 88% 29.88 in 10.0 mi Calm Calm - N/A   Overcast
7:31 AM 55.4 °F 53.6 °F 94% 29.88 in 10.0 mi Calm Calm - N/A   Overcast
7:56 AM 55.4 °F 53.4 °F 93% 29.89 in 10.0 mi Calm Calm - N/A   Overcast
8:11 AM 55.4 °F 53.6 °F 94% 29.89 in 10.0 mi Calm Calm - N/A   Overcast
8:56 AM 56.7 °F 54.1 °F 91% 29.91 in 10.0 mi Calm Calm - N/A   Overcast
9:06 AM 57.2 °F 53.6 °F 88% 29.91 in 10.0 mi Calm Calm - N/A   Overcast
9:26 AM 57.2 °F 53.6 °F 88% 29.92 in 10.0 mi Calm Calm - N/A   Overcast
9:41 AM 57.2 °F 53.6 °F 88% 29.93 in 10.0 mi Calm Calm - N/A   Overcast
9:46 AM 57.2 °F 53.6 °F 88% 29.93 in 10.0 mi Calm Calm - N/A   Overcast
9:56 AM 57.7 °F 53.2 °F 85% 29.92 in 10.0 mi Calm Calm - N/A   Overcast
10:56 AM 58.6 °F 51.8 °F 78% 29.93 in 10.0 mi Calm Calm - N/A   Overcast
11:56 AM 59.2 °F 51.6 °F 76% 29.93 in 10.0 mi ESE 4.6 mph - N/A   Overcast
12:21 PM 60.8 °F 51.8 °F 72% 29.93 in 10.0 mi SE 3.5 mph - N/A   Overcast
12:56 PM 60.8 °F 52.2 °F 73% 29.91 in 10.0 mi ESE 3.5 mph - N/A   Overcast
1:26 PM 62.6 °F 51.8 °F 68% 29.90 in 10.0 mi SSE 5.8 mph - N/A   Overcast
1:56 PM 64.0 °F 53.2 °F 68% 29.89 in 10.0 mi WSW 4.6 mph - N/A   Mostly Cloudy
2:31 PM 62.6 °F 53.6 °F 72% 29.88 in 10.0 mi Calm Calm - N/A   Scattered Clouds
2:36 PM 64.4 °F 53.6 °F 68% 29.87 in 10.0 mi Calm Calm - N/A   Mostly Cloudy
2:46 PM 64.4 °F 53.6 °F 68% 29.87 in 10.0 mi ESE 3.5 mph - N/A   Scattered Clouds
2:56 PM 65.1 °F 53.1 °F 65% 29.87 in 10.0 mi SSW 5.8 mph - N/A   Partly Cloudy
3:56 PM 67.1 °F 54.1 °F 63% 29.86 in 10.0 mi SE 9.2 mph - N/A   Clear
4:56 PM 65.7 °F 54.0 °F 66% 29.85 in 10.0 mi SE 5.8 mph - N/A   Partly Cloudy
5:56 PM 63.7 °F 54.1 °F 71% 29.84 in 10.0 mi East 3.5 mph - N/A   Scattered Clouds
6:56 PM 60.6 °F 53.8 °F 78% 29.83 in 10.0 mi Calm Calm - N/A   Partly Cloudy
7:56 PM 59.0 °F 53.8 °F 83% 29.83 in 10.0 mi Calm Calm - N/A   Partly Cloudy
8:56 PM 56.5 °F 52.9 °F 88% 29.82 in 10.0 mi East 4.6 mph - N/A   Partly Cloudy
9:56 PM 55.9 °F 53.1 °F 90% 29.82 in 10.0 mi East 3.5 mph - N/A   Scattered Clouds
10:56 PM 55.8 °F 52.3 °F 88% 29.79 in 10.0 mi East 3.5 mph - N/A   Scattered Clouds
11:56 PM 57.4 °F 52.9 °F 85% 29.73 in 10.0 mi ESE 6.9 mph - N/A   Scattered Clouds